Content
SEND FEEDBACK

Daily
Averages
Monthly
Summary
Canada

AMHERST, NOVA SCOTIA


Home > North America > Canada > Nova Scotia
Elevation: 66 feet     Latitude: 45 46N     Longitude: 064 15W

WEATHER
 
SELECT A DAY
Number of Records: 99,521;   Date Range: 6/19/04 - 10/21/14
 
SHARE

PRINT THIS DATA

[ ← Previous Day ]
WEATHER ALMANAC - FEBRUARY 25, 2013
[ Next Day → ]
[ °C ]   °F
Weather ElementAverageHighLow
Temperature23.2 °F31.5 °F (2:00 pm)13 °F (2:00 am)
Dewpoint19.1 °F23.9 °F (6:00 pm)11 °F (2:00 am)
Humidity84.3 %94 % (11:00 pm)58 % (2:00 pm)
Barometer30.02 in30.19 in (9:00 pm)29.86 in (1:00 am)
Wind Speed8.2 mph15 mph (11:00 am)
Weather ElementAverage
Wind DirectionESE (107 °)

Weather ElementTotal
Precipitation0.02 in
Heating Degree Days42.8 (Base 65)
Averaged from 27 records on February 25, 2013
WEATHER CONDITIONS BREAKOUT
WIND DIRECTION BREAKOUT
WEATHER BY HOUR - FEBRUARY 25, 2013
[ °C ]   °F
Local TimeTemperatureDewpointHumidityBarometerVisibilityWind DirectionWind SpeedGust SpeedPrecipitationEventsConditions
1:00 AM13.6 °F11.8 °F93 %29.86 inCalm
2:00 AM13.0 °F11.0 °F90 %29.86 inNNE (20°)3.5 mph
2:00 AM13.3 °F11.5 °F93 %29.86 inNNE (20°)3.5 mph
3:00 AM14.9 °F13.1 °F93 %29.86 inNNE (30°)5.8 mph
4:00 AM16.7 °F15.1 °F93 %29.86 inNNE (20°)8.1 mph
5:00 AM19.2 °F17.6 °F93 %29.88 inNorth (10°)11.5 mph0.01 in
6:00 AM18.5 °F16.7 °F93 %29.91 inNNE (20°)8.1 mph
7:00 AM17.6 °F15.6 °F92 %29.94 inNNE (20°)9.2 mph
8:00 AM18.0 °F17.0 °F91 %29.97 inNNE (30°)3.5 mph
8:00 AM18.3 °F16.5 °F93 %29.97 inNNE (30°)3.5 mph
9:00 AM22.5 °F19.9 °F90 %29.99 inNNE (20°)5.8 mph
10:00 AM25.3 °F21.4 °F85 %29.99 inNorth (360°)11.5 mph
11:00 AM26.8 °F20.7 °F78 %30.01 inNNE (20°)15.0 mph
12:00 PM29.1 °F20.7 °F71 %30.01 inNorth (10°)15.0 mph
1:00 PM30.0 °F20.8 °F69 %30.01 inNorth (10°)13.8 mph
2:00 PM31.0 °F22.0 °F58 %30.03 inNorth (10°)13.8 mph
2:00 PM31.5 °F21.7 °F67 %30.03 inNorth (10°)13.8 mph
3:00 PM31.3 °F22.3 °F69 %30.04 inNorth (360°)12.7 mph
4:00 PM30.0 °F22.6 °F74 %30.07 inNNE (20°)13.8 mph
5:00 PM29.3 °F22.1 °F75 %30.09 inNorth (10°)12.7 mph
6:00 PM28.4 °F23.9 °F83 %30.12 inNorth (360°)10.4 mph
7:00 PM27.3 °F23.4 °F85 %30.15 inNorth (350°)8.1 mph
8:00 PM26.0 °F23.0 °F83 %30.18 inNNW (340°)4.6 mph
8:00 PM26.1 °F23.0 °F88 %30.18 inNNW (340°)4.6 mph
9:00 PM24.4 °F22.1 °F91 %30.19 inNorth (360°)3.5 mph
10:00 PM23.0 °F21.2 °F93 %30.19 inNE (50°)2.3 mph
11:00 PM21.7 °F20.3 °F94 %30.18 inENE (60°)2.3 mph0.01 in
Hourly data recorded from CXNP, located miles away from Amherst, Nova Scotia







STORIES FROM OUR PARTNERS